<?xml version="1.0" encoding="UTF-8" standalone="no" ?>
<gpx xmlns="http://www.topografix.com/GPX/1/1" xmlns:xsi="http://www.w3.org/2001/XMLSchema-instance" xsi:schemaLocation="http://www.topografix.com/GPX/1/1 http://www.topografix.com/GPX/1/1/gpx.xsd" version="1.1" creator="VisuGPX - https://www.visugpx.com">
  <metadata>
    <name>Tour du causse de Fournet</name>
  </metadata>
  <wpt lat="45.10434" lon="1.41961">
    <ele>183</ele>
    <name><![CDATA[Parking aménagé à l'entré du village de Fournet]]></name>
  </wpt>
  <wpt lat="45.10389" lon="1.42052">
    <ele>198</ele>
    <name><![CDATA[Vierge de Fournet]]></name>
  </wpt>
  <wpt lat="45.1009" lon="1.4303">
    <ele>290</ele>
    <name><![CDATA[Fin de truffière, à droite]]></name>
  </wpt>
  <wpt lat="45.0976" lon="1.43514">
    <ele>255</ele>
    <name><![CDATA[Construction en bord de falaise]]></name>
  </wpt>
  <wpt lat="45.09376" lon="1.4336">
    <ele>127</ele>
    <name><![CDATA[Sentier à gauche]]></name>
  </wpt>
  <wpt lat="45.09976" lon="1.45366">
    <ele>131</ele>
    <name><![CDATA[Base nautique]]></name>
  </wpt>
  <wpt lat="45.10138" lon="1.44875">
    <ele>215</ele>
    <name><![CDATA[Départ du chemin remontant sur le causse]]></name>
  </wpt>
  <wpt lat="45.10662" lon="1.44277">
    <ele>229</ele>
    <name><![CDATA[GRP du Causse Corrézien, à gauche]]></name>
  </wpt>
  <wpt lat="45.10552" lon="1.43117">
    <ele>234</ele>
    <name><![CDATA[Peyrefumade]]></name>
  </wpt>
  <wpt lat="45.10349" lon="1.42206">
    <ele>209</ele>
    <name><![CDATA[Carrefour, à droite]]></name>
  </wpt>
  <wpt lat="45.10434" lon="1.41961">
    <ele>183</ele>
    <name><![CDATA[Parking aménagé à l'entré du village de Fournet]]></name>
  </wpt>
  <trk>
    <name><![CDATA[Tour du causse de Fournet]]></name>
    <trkseg>
      <trkpt lat="45.10434" lon="1.41961">
        <ele>183</ele>
        <time>2020-07-17T18:51:09+02:00</time>
      </trkpt>
      <trkpt lat="45.104" lon="1.41962">
        <ele>185</ele>
        <time>2020-07-17T18:51:09+02:00</time>
      </trkpt>
      <trkpt lat="45.10416" lon="1.41973">
        <ele>188</ele>
        <time>2020-07-17T18:51:09+02:00</time>
      </trkpt>
      <trkpt lat="45.1043" lon="1.4199">
        <ele>189</ele>
        <time>2020-07-17T18:51:09+02:00</time>
      </trkpt>
      <trkpt lat="45.10443" lon="1.42026">
        <ele>190</ele>
        <time>2020-07-17T18:51:09+02:00</time>
      </trkpt>
      <trkpt lat="45.10409" lon="1.42021">
        <ele>195</ele>
        <time>2020-07-17T18:51:09+02:00</time>
      </trkpt>
      <trkpt lat="45.10404" lon="1.42029">
        <ele>196</ele>
        <time>2020-07-17T18:51:09+02:00</time>
      </trkpt>
      <trkpt lat="45.104" lon="1.42035">
        <ele>196</ele>
        <time>2020-07-17T18:51:09+02:00</time>
      </trkpt>
      <trkpt lat="45.10395" lon="1.42047">
        <ele>198</ele>
        <time>2020-07-17T18:51:09+02:00</time>
      </trkpt>
      <trkpt lat="45.10389" lon="1.42052">
        <ele>198</ele>
        <time>2020-07-17T18:51:09+02:00</time>
      </trkpt>
      <trkpt lat="45.10378" lon="1.42066">
        <ele>200</ele>
        <time>2020-07-17T18:51:09+02:00</time>
      </trkpt>
      <trkpt lat="45.10365" lon="1.42081">
        <ele>202</ele>
        <time>2020-07-17T18:51:09+02:00</time>
      </trkpt>
      <trkpt lat="45.10345" lon="1.42098">
        <ele>204</ele>
        <time>2020-07-17T18:51:09+02:00</time>
      </trkpt>
      <trkpt lat="45.10323" lon="1.42125">
        <ele>206</ele>
        <time>2020-07-17T18:51:09+02:00</time>
      </trkpt>
      <trkpt lat="45.10308" lon="1.42155">
        <ele>208</ele>
        <time>2020-07-17T18:51:09+02:00</time>
      </trkpt>
      <trkpt lat="45.10295" lon="1.42186">
        <ele>211</ele>
        <time>2020-07-17T18:51:09+02:00</time>
      </trkpt>
      <trkpt lat="45.1029" lon="1.42209">
        <ele>214</ele>
        <time>2020-07-17T18:51:09+02:00</time>
      </trkpt>
      <trkpt lat="45.10286" lon="1.42227">
        <ele>216</ele>
        <time>2020-07-17T18:51:09+02:00</time>
      </trkpt>
      <trkpt lat="45.10266" lon="1.42247">
        <ele>219</ele>
        <time>2020-07-17T18:51:09+02:00</time>
      </trkpt>
      <trkpt lat="45.10258" lon="1.42251">
        <ele>220</ele>
        <time>2020-07-17T18:51:09+02:00</time>
      </trkpt>
      <trkpt lat="45.10244" lon="1.42272">
        <ele>222</ele>
        <time>2020-07-17T18:51:09+02:00</time>
      </trkpt>
      <trkpt lat="45.10241" lon="1.42284">
        <ele>224</ele>
        <time>2020-07-17T18:51:09+02:00</time>
      </trkpt>
      <trkpt lat="45.10235" lon="1.423">
        <ele>226</ele>
        <time>2020-07-17T18:51:09+02:00</time>
      </trkpt>
      <trkpt lat="45.10231" lon="1.42322">
        <ele>228</ele>
        <time>2020-07-17T18:51:09+02:00</time>
      </trkpt>
      <trkpt lat="45.10227" lon="1.42351">
        <ele>232</ele>
        <time>2020-07-17T18:51:09+02:00</time>
      </trkpt>
      <trkpt lat="45.10215" lon="1.42389">
        <ele>236</ele>
        <time>2020-07-17T18:51:09+02:00</time>
      </trkpt>
      <trkpt lat="45.10194" lon="1.42438">
        <ele>242</ele>
        <time>2020-07-17T18:51:09+02:00</time>
      </trkpt>
      <trkpt lat="45.10188" lon="1.42454">
        <ele>243</ele>
        <time>2020-07-17T18:51:09+02:00</time>
      </trkpt>
      <trkpt lat="45.10182" lon="1.42459">
        <ele>244</ele>
        <time>2020-07-17T18:51:09+02:00</time>
      </trkpt>
      <trkpt lat="45.10183" lon="1.42494">
        <ele>246</ele>
        <time>2020-07-17T18:51:09+02:00</time>
      </trkpt>
      <trkpt lat="45.10184" lon="1.42528">
        <ele>249</ele>
        <time>2020-07-17T18:51:09+02:00</time>
      </trkpt>
      <trkpt lat="45.10182" lon="1.42558">
        <ele>251</ele>
        <time>2020-07-17T18:51:09+02:00</time>
      </trkpt>
      <trkpt lat="45.10185" lon="1.42574">
        <ele>252</ele>
        <time>2020-07-17T18:51:09+02:00</time>
      </trkpt>
      <trkpt lat="45.10186" lon="1.42584">
        <ele>253</ele>
        <time>2020-07-17T18:51:09+02:00</time>
      </trkpt>
      <trkpt lat="45.10174" lon="1.42609">
        <ele>255</ele>
        <time>2020-07-17T18:51:09+02:00</time>
      </trkpt>
      <trkpt lat="45.10162" lon="1.42625">
        <ele>255</ele>
        <time>2020-07-17T18:51:09+02:00</time>
      </trkpt>
      <trkpt lat="45.10155" lon="1.42654">
        <ele>256</ele>
        <time>2020-07-17T18:51:09+02:00</time>
      </trkpt>
      <trkpt lat="45.10155" lon="1.42681">
        <ele>257</ele>
        <time>2020-07-17T18:51:09+02:00</time>
      </trkpt>
      <trkpt lat="45.10149" lon="1.42714">
        <ele>258</ele>
        <time>2020-07-17T18:51:09+02:00</time>
      </trkpt>
      <trkpt lat="45.1014" lon="1.42755">
        <ele>260</ele>
        <time>2020-07-17T18:51:09+02:00</time>
      </trkpt>
      <trkpt lat="45.10133" lon="1.42794">
        <ele>265</ele>
        <time>2020-07-17T18:51:09+02:00</time>
      </trkpt>
      <trkpt lat="45.1013" lon="1.42814">
        <ele>267</ele>
        <time>2020-07-17T18:51:09+02:00</time>
      </trkpt>
      <trkpt lat="45.10126" lon="1.42845">
        <ele>271</ele>
        <time>2020-07-17T18:51:09+02:00</time>
      </trkpt>
      <trkpt lat="45.10118" lon="1.42895">
        <ele>277</ele>
        <time>2020-07-17T18:51:09+02:00</time>
      </trkpt>
      <trkpt lat="45.10099" lon="1.42987">
        <ele>286</ele>
        <time>2020-07-17T18:51:09+02:00</time>
      </trkpt>
      <trkpt lat="45.1009" lon="1.4303">
        <ele>290</ele>
        <time>2020-07-17T18:51:09+02:00</time>
      </trkpt>
      <trkpt lat="45.10078" lon="1.4304">
        <ele>289</ele>
        <time>2020-07-17T18:51:09+02:00</time>
      </trkpt>
      <trkpt lat="45.10056" lon="1.43039">
        <ele>285</ele>
        <time>2020-07-17T18:51:09+02:00</time>
      </trkpt>
      <trkpt lat="45.10038" lon="1.43047">
        <ele>282</ele>
        <time>2020-07-17T18:51:09+02:00</time>
      </trkpt>
      <trkpt lat="45.10032" lon="1.43051">
        <ele>282</ele>
        <time>2020-07-17T18:51:09+02:00</time>
      </trkpt>
      <trkpt lat="45.10023" lon="1.43069">
        <ele>282</ele>
        <time>2020-07-17T18:51:09+02:00</time>
      </trkpt>
      <trkpt lat="45.10011" lon="1.43084">
        <ele>282</ele>
        <time>2020-07-17T18:51:09+02:00</time>
      </trkpt>
      <trkpt lat="45.10003" lon="1.43106">
        <ele>283</ele>
        <time>2020-07-17T18:51:09+02:00</time>
      </trkpt>
      <trkpt lat="45.10003" lon="1.43114">
        <ele>283</ele>
        <time>2020-07-17T18:51:09+02:00</time>
      </trkpt>
      <trkpt lat="45.09996" lon="1.43125">
        <ele>283</ele>
        <time>2020-07-17T18:51:09+02:00</time>
      </trkpt>
      <trkpt lat="45.09981" lon="1.43144">
        <ele>280</ele>
        <time>2020-07-17T18:51:09+02:00</time>
      </trkpt>
      <trkpt lat="45.09971" lon="1.43166">
        <ele>280</ele>
        <time>2020-07-17T18:51:09+02:00</time>
      </trkpt>
      <trkpt lat="45.09962" lon="1.4318">
        <ele>279</ele>
        <time>2020-07-17T18:51:09+02:00</time>
      </trkpt>
      <trkpt lat="45.09944" lon="1.4321">
        <ele>278</ele>
        <time>2020-07-17T18:51:09+02:00</time>
      </trkpt>
      <trkpt lat="45.0994" lon="1.43222">
        <ele>278</ele>
        <time>2020-07-17T18:51:09+02:00</time>
      </trkpt>
      <trkpt lat="45.0994" lon="1.4323">
        <ele>279</ele>
        <time>2020-07-17T18:51:09+02:00</time>
      </trkpt>
      <trkpt lat="45.09943" lon="1.43256">
        <ele>282</ele>
        <time>2020-07-17T18:51:09+02:00</time>
      </trkpt>
      <trkpt lat="45.09943" lon="1.43272">
        <ele>282</ele>
        <time>2020-07-17T18:51:09+02:00</time>
      </trkpt>
      <trkpt lat="45.09946" lon="1.4329">
        <ele>283</ele>
        <time>2020-07-17T18:51:09+02:00</time>
      </trkpt>
      <trkpt lat="45.09946" lon="1.43299">
        <ele>283</ele>
        <time>2020-07-17T18:51:09+02:00</time>
      </trkpt>
      <trkpt lat="45.09944" lon="1.43302">
        <ele>283</ele>
        <time>2020-07-17T18:51:09+02:00</time>
      </trkpt>
      <trkpt lat="45.09936" lon="1.43304">
        <ele>282</ele>
        <time>2020-07-17T18:51:09+02:00</time>
      </trkpt>
      <trkpt lat="45.09921" lon="1.43298">
        <ele>280</ele>
        <time>2020-07-17T18:51:09+02:00</time>
      </trkpt>
      <trkpt lat="45.09903" lon="1.43288">
        <ele>275</ele>
        <time>2020-07-17T18:51:09+02:00</time>
      </trkpt>
      <trkpt lat="45.09889" lon="1.43287">
        <ele>270</ele>
        <time>2020-07-17T18:51:09+02:00</time>
      </trkpt>
      <trkpt lat="45.09876" lon="1.4329">
        <ele>267</ele>
        <time>2020-07-17T18:51:09+02:00</time>
      </trkpt>
      <trkpt lat="45.09857" lon="1.43301">
        <ele>263</ele>
        <time>2020-07-17T18:51:09+02:00</time>
      </trkpt>
      <trkpt lat="45.09843" lon="1.43318">
        <ele>261</ele>
        <time>2020-07-17T18:51:09+02:00</time>
      </trkpt>
      <trkpt lat="45.09833" lon="1.43332">
        <ele>262</ele>
        <time>2020-07-17T18:51:09+02:00</time>
      </trkpt>
      <trkpt lat="45.09826" lon="1.43343">
        <ele>261</ele>
        <time>2020-07-17T18:51:09+02:00</time>
      </trkpt>
      <trkpt lat="45.09809" lon="1.43359">
        <ele>257</ele>
        <time>2020-07-17T18:51:09+02:00</time>
      </trkpt>
      <trkpt lat="45.09794" lon="1.43367">
        <ele>253</ele>
        <time>2020-07-17T18:51:09+02:00</time>
      </trkpt>
      <trkpt lat="45.09789" lon="1.43376">
        <ele>253</ele>
        <time>2020-07-17T18:51:09+02:00</time>
      </trkpt>
      <trkpt lat="45.09781" lon="1.43385">
        <ele>252</ele>
        <time>2020-07-17T18:51:09+02:00</time>
      </trkpt>
      <trkpt lat="45.09776" lon="1.43388">
        <ele>251</ele>
        <time>2020-07-17T18:51:09+02:00</time>
      </trkpt>
      <trkpt lat="45.09779" lon="1.43391">
        <ele>253</ele>
        <time>2020-07-17T18:51:09+02:00</time>
      </trkpt>
      <trkpt lat="45.09782" lon="1.43391">
        <ele>254</ele>
        <time>2020-07-17T18:51:09+02:00</time>
      </trkpt>
      <trkpt lat="45.09782" lon="1.43395">
        <ele>254</ele>
        <time>2020-07-17T18:51:09+02:00</time>
      </trkpt>
      <trkpt lat="45.09782" lon="1.43399">
        <ele>255</ele>
        <time>2020-07-17T18:51:09+02:00</time>
      </trkpt>
      <trkpt lat="45.09788" lon="1.43401">
        <ele>257</ele>
        <time>2020-07-17T18:51:09+02:00</time>
      </trkpt>
      <trkpt lat="45.09795" lon="1.43401">
        <ele>260</ele>
        <time>2020-07-17T18:51:09+02:00</time>
      </trkpt>
      <trkpt lat="45.09799" lon="1.43402">
        <ele>261</ele>
        <time>2020-07-17T18:51:09+02:00</time>
      </trkpt>
      <trkpt lat="45.09801" lon="1.434">
        <ele>261</ele>
        <time>2020-07-17T18:51:09+02:00</time>
      </trkpt>
      <trkpt lat="45.09803" lon="1.43399">
        <ele>262</ele>
        <time>2020-07-17T18:51:09+02:00</time>
      </trkpt>
      <trkpt lat="45.09807" lon="1.43403">
        <ele>264</ele>
        <time>2020-07-17T18:51:09+02:00</time>
      </trkpt>
      <trkpt lat="45.09808" lon="1.43417">
        <ele>267</ele>
        <time>2020-07-17T18:51:09+02:00</time>
      </trkpt>
      <trkpt lat="45.09811" lon="1.43426">
        <ele>268</ele>
        <time>2020-07-17T18:51:09+02:00</time>
      </trkpt>
      <trkpt lat="45.09811" lon="1.43431">
        <ele>268</ele>
        <time>2020-07-17T18:51:09+02:00</time>
      </trkpt>
      <trkpt lat="45.09808" lon="1.43443">
        <ele>267</ele>
        <time>2020-07-17T18:51:09+02:00</time>
      </trkpt>
      <trkpt lat="45.09806" lon="1.43447">
        <ele>267</ele>
        <time>2020-07-17T18:51:09+02:00</time>
      </trkpt>
      <trkpt lat="45.09807" lon="1.43464">
        <ele>268</ele>
        <time>2020-07-17T18:51:09+02:00</time>
      </trkpt>
      <trkpt lat="45.09807" lon="1.43484">
        <ele>268</ele>
        <time>2020-07-17T18:51:09+02:00</time>
      </trkpt>
      <trkpt lat="45.09805" lon="1.43498">
        <ele>268</ele>
        <time>2020-07-17T18:51:09+02:00</time>
      </trkpt>
      <trkpt lat="45.098" lon="1.43501">
        <ele>267</ele>
        <time>2020-07-17T18:51:09+02:00</time>
      </trkpt>
      <trkpt lat="45.09795" lon="1.43507">
        <ele>265</ele>
        <time>2020-07-17T18:51:09+02:00</time>
      </trkpt>
      <trkpt lat="45.09791" lon="1.43509">
        <ele>263</ele>
        <time>2020-07-17T18:51:09+02:00</time>
      </trkpt>
      <trkpt lat="45.09783" lon="1.43507">
        <ele>261</ele>
        <time>2020-07-17T18:51:09+02:00</time>
      </trkpt>
      <trkpt lat="45.09779" lon="1.43505">
        <ele>260</ele>
        <time>2020-07-17T18:51:09+02:00</time>
      </trkpt>
      <trkpt lat="45.09769" lon="1.43507">
        <ele>258</ele>
        <time>2020-07-17T18:51:09+02:00</time>
      </trkpt>
      <trkpt lat="45.0976" lon="1.43514">
        <ele>255</ele>
        <time>2020-07-17T18:51:09+02:00</time>
      </trkpt>
      <trkpt lat="45.09761" lon="1.43522">
        <ele>254</ele>
        <time>2020-07-17T18:51:09+02:00</time>
      </trkpt>
      <trkpt lat="45.09764" lon="1.43523">
        <ele>255</ele>
        <time>2020-07-17T18:51:09+02:00</time>
      </trkpt>
      <trkpt lat="45.09763" lon="1.43526">
        <ele>254</ele>
        <time>2020-07-17T18:51:09+02:00</time>
      </trkpt>
      <trkpt lat="45.09769" lon="1.43539">
        <ele>254</ele>
        <time>2020-07-17T18:51:09+02:00</time>
      </trkpt>
      <trkpt lat="45.09771" lon="1.43547">
        <ele>254</ele>
        <time>2020-07-17T18:51:09+02:00</time>
      </trkpt>
      <trkpt lat="45.0977" lon="1.4356">
        <ele>253</ele>
        <time>2020-07-17T18:51:09+02:00</time>
      </trkpt>
      <trkpt lat="45.09768" lon="1.43573">
        <ele>251</ele>
        <time>2020-07-17T18:51:09+02:00</time>
      </trkpt>
      <trkpt lat="45.09767" lon="1.4359">
        <ele>248</ele>
        <time>2020-07-17T18:51:09+02:00</time>
      </trkpt>
      <trkpt lat="45.09768" lon="1.43601">
        <ele>246</ele>
        <time>2020-07-17T18:51:09+02:00</time>
      </trkpt>
      <trkpt lat="45.09769" lon="1.43616">
        <ele>243</ele>
        <time>2020-07-17T18:51:09+02:00</time>
      </trkpt>
      <trkpt lat="45.09769" lon="1.43623">
        <ele>241</ele>
        <time>2020-07-17T18:51:09+02:00</time>
      </trkpt>
      <trkpt lat="45.09769" lon="1.43633">
        <ele>239</ele>
        <time>2020-07-17T18:51:09+02:00</time>
      </trkpt>
      <trkpt lat="45.09769" lon="1.43645">
        <ele>237</ele>
        <time>2020-07-17T18:51:09+02:00</time>
      </trkpt>
      <trkpt lat="45.09769" lon="1.43658">
        <ele>234</ele>
        <time>2020-07-17T18:51:09+02:00</time>
      </trkpt>
      <trkpt lat="45.09772" lon="1.43674">
        <ele>231</ele>
        <time>2020-07-17T18:51:09+02:00</time>
      </trkpt>
      <trkpt lat="45.09776" lon="1.43682">
        <ele>229</ele>
        <time>2020-07-17T18:51:09+02:00</time>
      </trkpt>
      <trkpt lat="45.09772" lon="1.43689">
        <ele>227</ele>
        <time>2020-07-17T18:51:09+02:00</time>
      </trkpt>
      <trkpt lat="45.09768" lon="1.43694">
        <ele>225</ele>
        <time>2020-07-17T18:51:09+02:00</time>
      </trkpt>
      <trkpt lat="45.09758" lon="1.43696">
        <ele>224</ele>
        <time>2020-07-17T18:51:09+02:00</time>
      </trkpt>
      <trkpt lat="45.09747" lon="1.43693">
        <ele>223</ele>
        <time>2020-07-17T18:51:09+02:00</time>
      </trkpt>
      <trkpt lat="45.09747" lon="1.43693">
        <ele>223</ele>
        <time>2020-07-17T18:51:09+02:00</time>
      </trkpt>
      <trkpt lat="45.09744" lon="1.43695">
        <ele>222</ele>
        <time>2020-07-17T18:51:09+02:00</time>
      </trkpt>
      <trkpt lat="45.09736" lon="1.4369">
        <ele>220</ele>
        <time>2020-07-17T18:51:09+02:00</time>
      </trkpt>
      <trkpt lat="45.09726" lon="1.43688">
        <ele>218</ele>
        <time>2020-07-17T18:51:09+02:00</time>
      </trkpt>
      <trkpt lat="45.09716" lon="1.43685">
        <ele>216</ele>
        <time>2020-07-17T18:51:09+02:00</time>
      </trkpt>
      <trkpt lat="45.09707" lon="1.4368">
        <ele>214</ele>
        <time>2020-07-17T18:51:09+02:00</time>
      </trkpt>
      <trkpt lat="45.09698" lon="1.43675">
        <ele>213</ele>
        <time>2020-07-17T18:51:09+02:00</time>
      </trkpt>
      <trkpt lat="45.09693" lon="1.43672">
        <ele>212</ele>
        <time>2020-07-17T18:51:09+02:00</time>
      </trkpt>
      <trkpt lat="45.09684" lon="1.43673">
        <ele>209</ele>
        <time>2020-07-17T18:51:09+02:00</time>
      </trkpt>
      <trkpt lat="45.09689" lon="1.43684">
        <ele>209</ele>
        <time>2020-07-17T18:51:09+02:00</time>
      </trkpt>
      <trkpt lat="45.09689" lon="1.43684">
        <ele>209</ele>
        <time>2020-07-17T18:51:09+02:00</time>
      </trkpt>
      <trkpt lat="45.09697" lon="1.43704">
        <ele>207</ele>
        <time>2020-07-17T18:51:09+02:00</time>
      </trkpt>
      <trkpt lat="45.09703" lon="1.43708">
        <ele>208</ele>
        <time>2020-07-17T18:51:09+02:00</time>
      </trkpt>
      <trkpt lat="45.0971" lon="1.43718">
        <ele>208</ele>
        <time>2020-07-17T18:51:09+02:00</time>
      </trkpt>
      <trkpt lat="45.0971" lon="1.43726">
        <ele>206</ele>
        <time>2020-07-17T18:51:09+02:00</time>
      </trkpt>
      <trkpt lat="45.09706" lon="1.43732">
        <ele>204</ele>
        <time>2020-07-17T18:51:09+02:00</time>
      </trkpt>
      <trkpt lat="45.09706" lon="1.43732">
        <ele>204</ele>
        <time>2020-07-17T18:51:09+02:00</time>
      </trkpt>
      <trkpt lat="45.09695" lon="1.43732">
        <ele>201</ele>
        <time>2020-07-17T18:51:09+02:00</time>
      </trkpt>
      <trkpt lat="45.09681" lon="1.4373">
        <ele>199</ele>
        <time>2020-07-17T18:51:09+02:00</time>
      </trkpt>
      <trkpt lat="45.09674" lon="1.43722">
        <ele>198</ele>
        <time>2020-07-17T18:51:09+02:00</time>
      </trkpt>
      <trkpt lat="45.09654" lon="1.43711">
        <ele>194</ele>
        <time>2020-07-17T18:51:09+02:00</time>
      </trkpt>
      <trkpt lat="45.09635" lon="1.43699">
        <ele>190</ele>
        <time>2020-07-17T18:51:09+02:00</time>
      </trkpt>
      <trkpt lat="45.0962" lon="1.43673">
        <ele>188</ele>
        <time>2020-07-17T18:51:09+02:00</time>
      </trkpt>
      <trkpt lat="45.09606" lon="1.43641">
        <ele>186</ele>
        <time>2020-07-17T18:51:09+02:00</time>
      </trkpt>
      <trkpt lat="45.096" lon="1.43628">
        <ele>185</ele>
        <time>2020-07-17T18:51:09+02:00</time>
      </trkpt>
      <trkpt lat="45.09595" lon="1.4362">
        <ele>184</ele>
        <time>2020-07-17T18:51:09+02:00</time>
      </trkpt>
      <trkpt lat="45.09586" lon="1.43609">
        <ele>181</ele>
        <time>2020-07-17T18:51:09+02:00</time>
      </trkpt>
      <trkpt lat="45.09575" lon="1.43607">
        <ele>178</ele>
        <time>2020-07-17T18:51:09+02:00</time>
      </trkpt>
      <trkpt lat="45.09555" lon="1.43604">
        <ele>172</ele>
        <time>2020-07-17T18:51:09+02:00</time>
      </trkpt>
      <trkpt lat="45.09546" lon="1.43602">
        <ele>169</ele>
        <time>2020-07-17T18:51:09+02:00</time>
      </trkpt>
      <trkpt lat="45.09539" lon="1.43596">
        <ele>167</ele>
        <time>2020-07-17T18:51:09+02:00</time>
      </trkpt>
      <trkpt lat="45.09529" lon="1.43586">
        <ele>165</ele>
        <time>2020-07-17T18:51:09+02:00</time>
      </trkpt>
      <trkpt lat="45.0952" lon="1.43578">
        <ele>162</ele>
        <time>2020-07-17T18:51:09+02:00</time>
      </trkpt>
      <trkpt lat="45.09517" lon="1.43552">
        <ele>162</ele>
        <time>2020-07-17T18:51:09+02:00</time>
      </trkpt>
      <trkpt lat="45.09504" lon="1.43541">
        <ele>157</ele>
        <time>2021-03-30T14:03:03+02:00</time>
      </trkpt>
      <trkpt lat="45.0949" lon="1.43535">
        <ele>153</ele>
        <time>2020-07-17T18:51:09+02:00</time>
      </trkpt>
      <trkpt lat="45.09479" lon="1.43514">
        <ele>150</ele>
        <time>2020-07-17T18:51:09+02:00</time>
      </trkpt>
      <trkpt lat="45.09473" lon="1.43483">
        <ele>149</ele>
        <time>2020-07-17T18:51:09+02:00</time>
      </trkpt>
      <trkpt lat="45.09471" lon="1.43459">
        <ele>148</ele>
        <time>2020-07-17T18:51:09+02:00</time>
      </trkpt>
      <trkpt lat="45.09471" lon="1.43459">
        <ele>148</ele>
        <time>2020-07-17T18:51:09+02:00</time>
      </trkpt>
      <trkpt lat="45.09471" lon="1.43459">
        <ele>148</ele>
        <time>2020-07-17T18:51:09+02:00</time>
      </trkpt>
      <trkpt lat="45.09464" lon="1.43436">
        <ele>146</ele>
        <time>2020-07-17T18:51:09+02:00</time>
      </trkpt>
      <trkpt lat="45.0946" lon="1.43413">
        <ele>145</ele>
        <time>2020-07-17T18:51:09+02:00</time>
      </trkpt>
      <trkpt lat="45.09456" lon="1.43376">
        <ele>142</ele>
        <time>2020-07-17T18:51:09+02:00</time>
      </trkpt>
      <trkpt lat="45.09455" lon="1.43366">
        <ele>141</ele>
        <time>2020-07-17T18:51:09+02:00</time>
      </trkpt>
      <trkpt lat="45.09393" lon="1.43348">
        <ele>129</ele>
        <time>2020-07-17T18:51:09+02:00</time>
      </trkpt>
      <trkpt lat="45.09376" lon="1.4336">
        <ele>127</ele>
        <time>2020-07-17T18:51:09+02:00</time>
      </trkpt>
      <trkpt lat="45.09373" lon="1.43429">
        <ele>128</ele>
        <time>2021-03-30T14:04:08+02:00</time>
      </trkpt>
      <trkpt lat="45.09382" lon="1.43566">
        <ele>129</ele>
        <time>2020-07-17T18:51:09+02:00</time>
      </trkpt>
      <trkpt lat="45.09375" lon="1.4361">
        <ele>129</ele>
        <time>2020-07-17T18:51:09+02:00</time>
      </trkpt>
      <trkpt lat="45.09366" lon="1.43653">
        <ele>128</ele>
        <time>2020-07-17T18:51:09+02:00</time>
      </trkpt>
      <trkpt lat="45.09367" lon="1.43687">
        <ele>128</ele>
        <time>2020-07-17T18:51:09+02:00</time>
      </trkpt>
      <trkpt lat="45.09381" lon="1.43755">
        <ele>127</ele>
        <time>2020-07-17T18:51:09+02:00</time>
      </trkpt>
      <trkpt lat="45.09387" lon="1.43793">
        <ele>127</ele>
        <time>2020-07-17T18:51:09+02:00</time>
      </trkpt>
      <trkpt lat="45.09424" lon="1.43851">
        <ele>128</ele>
        <time>2020-07-17T18:51:09+02:00</time>
      </trkpt>
      <trkpt lat="45.09439" lon="1.43886">
        <ele>128</ele>
        <time>2020-07-17T18:51:09+02:00</time>
      </trkpt>
      <trkpt lat="45.09449" lon="1.43919">
        <ele>127</ele>
        <time>2020-07-17T18:51:09+02:00</time>
      </trkpt>
      <trkpt lat="45.09466" lon="1.4395">
        <ele>127</ele>
        <time>2020-07-17T18:51:09+02:00</time>
      </trkpt>
      <trkpt lat="45.09466" lon="1.4395">
        <ele>127</ele>
        <time>2020-07-17T18:51:09+02:00</time>
      </trkpt>
      <trkpt lat="45.095" lon="1.44049">
        <ele>123</ele>
        <time>2020-07-17T18:51:09+02:00</time>
      </trkpt>
      <trkpt lat="45.09524" lon="1.44106">
        <ele>124</ele>
        <time>2020-07-17T18:51:09+02:00</time>
      </trkpt>
      <trkpt lat="45.09544" lon="1.44145">
        <ele>125</ele>
        <time>2020-07-17T18:51:09+02:00</time>
      </trkpt>
      <trkpt lat="45.09564" lon="1.44166">
        <ele>126</ele>
        <time>2020-07-17T18:51:09+02:00</time>
      </trkpt>
      <trkpt lat="45.09564" lon="1.44166">
        <ele>126</ele>
        <time>2020-07-17T18:51:09+02:00</time>
      </trkpt>
      <trkpt lat="45.09573" lon="1.44183">
        <ele>126</ele>
        <time>2020-07-17T18:51:09+02:00</time>
      </trkpt>
      <trkpt lat="45.09569" lon="1.44228">
        <ele>126</ele>
        <time>2020-07-17T18:51:09+02:00</time>
      </trkpt>
      <trkpt lat="45.09565" lon="1.44266">
        <ele>125</ele>
        <time>2020-07-17T18:51:09+02:00</time>
      </trkpt>
      <trkpt lat="45.09571" lon="1.44351">
        <ele>126</ele>
        <time>2020-07-17T18:51:09+02:00</time>
      </trkpt>
      <trkpt lat="45.09579" lon="1.44425">
        <ele>127</ele>
        <time>2020-07-17T18:51:09+02:00</time>
      </trkpt>
      <trkpt lat="45.0959" lon="1.44512">
        <ele>129</ele>
        <time>2020-07-17T18:51:09+02:00</time>
      </trkpt>
      <trkpt lat="45.0959" lon="1.44512">
        <ele>129</ele>
        <time>2020-07-17T18:51:09+02:00</time>
      </trkpt>
      <trkpt lat="45.09617" lon="1.44608">
        <ele>130</ele>
        <time>2020-07-17T18:51:09+02:00</time>
      </trkpt>
      <trkpt lat="45.09638" lon="1.44692">
        <ele>128</ele>
        <time>2020-07-17T18:51:09+02:00</time>
      </trkpt>
      <trkpt lat="45.09655" lon="1.44711">
        <ele>130</ele>
        <time>2020-07-17T18:51:09+02:00</time>
      </trkpt>
      <trkpt lat="45.09662" lon="1.4473">
        <ele>130</ele>
        <time>2020-07-17T18:51:09+02:00</time>
      </trkpt>
      <trkpt lat="45.09657" lon="1.44767">
        <ele>127</ele>
        <time>2020-07-17T18:51:09+02:00</time>
      </trkpt>
      <trkpt lat="45.09664" lon="1.44814">
        <ele>126</ele>
        <time>2020-07-17T18:51:09+02:00</time>
      </trkpt>
      <trkpt lat="45.09688" lon="1.44885">
        <ele>125</ele>
        <time>2020-07-17T18:51:09+02:00</time>
      </trkpt>
      <trkpt lat="45.09708" lon="1.44947">
        <ele>125</ele>
        <time>2020-07-17T18:51:09+02:00</time>
      </trkpt>
      <trkpt lat="45.09708" lon="1.44947">
        <ele>125</ele>
        <time>2020-07-17T18:51:09+02:00</time>
      </trkpt>
      <trkpt lat="45.09729" lon="1.45024">
        <ele>124</ele>
        <time>2020-07-17T18:51:09+02:00</time>
      </trkpt>
      <trkpt lat="45.09744" lon="1.45055">
        <ele>123</ele>
        <time>2020-07-17T18:51:09+02:00</time>
      </trkpt>
      <trkpt lat="45.09744" lon="1.45055">
        <ele>123</ele>
        <time>2020-07-17T18:51:09+02:00</time>
      </trkpt>
      <trkpt lat="45.09769" lon="1.45106">
        <ele>124</ele>
        <time>2020-07-17T18:51:09+02:00</time>
      </trkpt>
      <trkpt lat="45.09795" lon="1.45166">
        <ele>127</ele>
        <time>2020-07-17T18:51:09+02:00</time>
      </trkpt>
      <trkpt lat="45.09821" lon="1.45225">
        <ele>125</ele>
        <time>2020-07-17T18:51:09+02:00</time>
      </trkpt>
      <trkpt lat="45.09846" lon="1.45255">
        <ele>123</ele>
        <time>2020-07-17T18:51:09+02:00</time>
      </trkpt>
      <trkpt lat="45.09846" lon="1.45255">
        <ele>123</ele>
        <time>2020-07-17T18:51:09+02:00</time>
      </trkpt>
      <trkpt lat="45.0989" lon="1.45308">
        <ele>127</ele>
        <time>2020-07-17T18:51:09+02:00</time>
      </trkpt>
      <trkpt lat="45.09921" lon="1.45345">
        <ele>128</ele>
        <time>2020-07-17T18:51:09+02:00</time>
      </trkpt>
      <trkpt lat="45.09921" lon="1.45345">
        <ele>128</ele>
        <time>2020-07-17T18:51:09+02:00</time>
      </trkpt>
      <trkpt lat="45.09937" lon="1.45347">
        <ele>129</ele>
        <time>2020-07-17T18:51:09+02:00</time>
      </trkpt>
      <trkpt lat="45.09961" lon="1.45342">
        <ele>132</ele>
        <time>2020-07-17T18:51:09+02:00</time>
      </trkpt>
      <trkpt lat="45.09976" lon="1.45366">
        <ele>131</ele>
        <time>2020-07-17T18:51:09+02:00</time>
      </trkpt>
      <trkpt lat="45.09985" lon="1.45336">
        <ele>135</ele>
        <time>2020-07-17T18:51:09+02:00</time>
      </trkpt>
      <trkpt lat="45.09985" lon="1.45336">
        <ele>135</ele>
        <time>2020-07-17T18:51:09+02:00</time>
      </trkpt>
      <trkpt lat="45.09985" lon="1.4529">
        <ele>139</ele>
        <time>2020-07-17T18:51:09+02:00</time>
      </trkpt>
      <trkpt lat="45.09985" lon="1.4529">
        <ele>139</ele>
        <time>2020-07-17T18:51:09+02:00</time>
      </trkpt>
      <trkpt lat="45.09984" lon="1.45232">
        <ele>144</ele>
        <time>2020-07-17T18:51:09+02:00</time>
      </trkpt>
      <trkpt lat="45.09998" lon="1.45206">
        <ele>147</ele>
        <time>2020-07-17T18:51:09+02:00</time>
      </trkpt>
      <trkpt lat="45.09998" lon="1.45206">
        <ele>147</ele>
        <time>2020-07-17T18:51:09+02:00</time>
      </trkpt>
      <trkpt lat="45.1001" lon="1.45193">
        <ele>149</ele>
        <time>2020-07-17T18:51:09+02:00</time>
      </trkpt>
      <trkpt lat="45.1001" lon="1.45193">
        <ele>149</ele>
        <time>2020-07-17T18:51:09+02:00</time>
      </trkpt>
      <trkpt lat="45.10026" lon="1.45184">
        <ele>152</ele>
        <time>2020-07-17T18:51:09+02:00</time>
      </trkpt>
      <trkpt lat="45.10026" lon="1.45184">
        <ele>152</ele>
        <time>2020-07-17T18:51:09+02:00</time>
      </trkpt>
      <trkpt lat="45.10024" lon="1.45162">
        <ele>153</ele>
        <time>2020-07-17T18:51:09+02:00</time>
      </trkpt>
      <trkpt lat="45.1003" lon="1.45146">
        <ele>156</ele>
        <time>2020-07-17T18:51:09+02:00</time>
      </trkpt>
      <trkpt lat="45.10047" lon="1.45124">
        <ele>161</ele>
        <time>2020-07-17T18:51:09+02:00</time>
      </trkpt>
      <trkpt lat="45.10061" lon="1.45114">
        <ele>165</ele>
        <time>2020-07-17T18:51:09+02:00</time>
      </trkpt>
      <trkpt lat="45.10061" lon="1.45114">
        <ele>165</ele>
        <time>2020-07-17T18:51:09+02:00</time>
      </trkpt>
      <trkpt lat="45.10095" lon="1.45132">
        <ele>166</ele>
        <time>2020-07-17T18:51:09+02:00</time>
      </trkpt>
      <trkpt lat="45.10095" lon="1.45132">
        <ele>166</ele>
        <time>2020-07-17T18:51:09+02:00</time>
      </trkpt>
      <trkpt lat="45.10095" lon="1.45132">
        <ele>166</ele>
        <time>2020-07-17T18:51:09+02:00</time>
      </trkpt>
      <trkpt lat="45.10111" lon="1.45132">
        <ele>168</ele>
        <time>2020-07-17T18:51:09+02:00</time>
      </trkpt>
      <trkpt lat="45.10111" lon="1.45132">
        <ele>168</ele>
        <time>2020-07-17T18:51:09+02:00</time>
      </trkpt>
      <trkpt lat="45.10134" lon="1.4512">
        <ele>172</ele>
        <time>2020-07-17T18:51:09+02:00</time>
      </trkpt>
      <trkpt lat="45.10134" lon="1.4512">
        <ele>172</ele>
        <time>2020-07-17T18:51:09+02:00</time>
      </trkpt>
      <trkpt lat="45.10163" lon="1.45114">
        <ele>175</ele>
        <time>2020-07-17T18:51:09+02:00</time>
      </trkpt>
      <trkpt lat="45.10221" lon="1.45104">
        <ele>184</ele>
        <time>2020-07-17T18:51:09+02:00</time>
      </trkpt>
      <trkpt lat="45.10243" lon="1.45094">
        <ele>188</ele>
        <time>2020-07-17T18:51:09+02:00</time>
      </trkpt>
      <trkpt lat="45.10243" lon="1.45094">
        <ele>188</ele>
        <time>2020-07-17T18:51:09+02:00</time>
      </trkpt>
      <trkpt lat="45.1026" lon="1.4508">
        <ele>191</ele>
        <time>2020-07-17T18:51:09+02:00</time>
      </trkpt>
      <trkpt lat="45.10267" lon="1.45033">
        <ele>197</ele>
        <time>2020-07-17T18:51:09+02:00</time>
      </trkpt>
      <trkpt lat="45.10229" lon="1.45016">
        <ele>198</ele>
        <time>2020-07-17T18:51:09+02:00</time>
      </trkpt>
      <trkpt lat="45.10201" lon="1.45002">
        <ele>198</ele>
        <time>2020-07-17T18:51:09+02:00</time>
      </trkpt>
      <trkpt lat="45.1019" lon="1.44988">
        <ele>200</ele>
        <time>2020-07-17T18:51:09+02:00</time>
      </trkpt>
      <trkpt lat="45.10159" lon="1.44934">
        <ele>206</ele>
        <time>2020-07-17T18:51:09+02:00</time>
      </trkpt>
      <trkpt lat="45.10138" lon="1.44875">
        <ele>215</ele>
        <time>2020-07-17T18:51:09+02:00</time>
      </trkpt>
      <trkpt lat="45.10138" lon="1.44875">
        <ele>215</ele>
        <time>2020-07-17T18:51:09+02:00</time>
      </trkpt>
      <trkpt lat="45.10163" lon="1.44891">
        <ele>216</ele>
        <time>2020-07-17T18:51:09+02:00</time>
      </trkpt>
      <trkpt lat="45.10163" lon="1.44891">
        <ele>216</ele>
        <time>2020-07-17T18:51:09+02:00</time>
      </trkpt>
      <trkpt lat="45.10224" lon="1.44908">
        <ele>220</ele>
        <time>2020-07-17T18:51:09+02:00</time>
      </trkpt>
      <trkpt lat="45.10261" lon="1.44903">
        <ele>225</ele>
        <time>2020-07-17T18:51:09+02:00</time>
      </trkpt>
      <trkpt lat="45.10261" lon="1.44903">
        <ele>225</ele>
        <time>2020-07-17T18:51:09+02:00</time>
      </trkpt>
      <trkpt lat="45.10298" lon="1.44886">
        <ele>230</ele>
        <time>2020-07-17T18:51:09+02:00</time>
      </trkpt>
      <trkpt lat="45.10327" lon="1.44863">
        <ele>236</ele>
        <time>2020-07-17T18:51:09+02:00</time>
      </trkpt>
      <trkpt lat="45.10327" lon="1.44863">
        <ele>236</ele>
        <time>2020-07-17T18:51:09+02:00</time>
      </trkpt>
      <trkpt lat="45.10341" lon="1.44854">
        <ele>238</ele>
        <time>2020-07-17T18:51:09+02:00</time>
      </trkpt>
      <trkpt lat="45.1039" lon="1.44787">
        <ele>254</ele>
        <time>2020-07-17T18:51:09+02:00</time>
      </trkpt>
      <trkpt lat="45.10427" lon="1.44776">
        <ele>252</ele>
        <time>2020-07-17T18:51:09+02:00</time>
      </trkpt>
      <trkpt lat="45.10427" lon="1.44776">
        <ele>252</ele>
        <time>2020-07-17T18:51:09+02:00</time>
      </trkpt>
      <trkpt lat="45.10492" lon="1.44702">
        <ele>261</ele>
        <time>2020-07-17T18:51:09+02:00</time>
      </trkpt>
      <trkpt lat="45.10492" lon="1.44702">
        <ele>261</ele>
        <time>2020-07-17T18:51:09+02:00</time>
      </trkpt>
      <trkpt lat="45.10497" lon="1.44643">
        <ele>267</ele>
        <time>2020-07-17T18:51:09+02:00</time>
      </trkpt>
      <trkpt lat="45.10523" lon="1.44612">
        <ele>267</ele>
        <time>2020-07-17T18:51:09+02:00</time>
      </trkpt>
      <trkpt lat="45.10527" lon="1.44557">
        <ele>266</ele>
        <time>2020-07-17T18:51:09+02:00</time>
      </trkpt>
      <trkpt lat="45.10541" lon="1.4451">
        <ele>261</ele>
        <time>2020-07-17T18:51:09+02:00</time>
      </trkpt>
      <trkpt lat="45.10522" lon="1.44511">
        <ele>262</ele>
        <time>2020-07-17T18:51:09+02:00</time>
      </trkpt>
      <trkpt lat="45.10522" lon="1.44511">
        <ele>262</ele>
        <time>2020-07-17T18:51:09+02:00</time>
      </trkpt>
      <trkpt lat="45.10502" lon="1.445">
        <ele>262</ele>
        <time>2020-07-17T18:51:09+02:00</time>
      </trkpt>
      <trkpt lat="45.10489" lon="1.44479">
        <ele>263</ele>
        <time>2020-07-17T18:51:09+02:00</time>
      </trkpt>
      <trkpt lat="45.10484" lon="1.44455">
        <ele>262</ele>
        <time>2020-07-17T18:51:09+02:00</time>
      </trkpt>
      <trkpt lat="45.10491" lon="1.44437">
        <ele>260</ele>
        <time>2020-07-17T18:51:09+02:00</time>
      </trkpt>
      <trkpt lat="45.10518" lon="1.44399">
        <ele>255</ele>
        <time>2020-07-17T18:51:09+02:00</time>
      </trkpt>
      <trkpt lat="45.10527" lon="1.44382">
        <ele>254</ele>
        <time>2020-07-17T18:51:09+02:00</time>
      </trkpt>
      <trkpt lat="45.10555" lon="1.4436">
        <ele>249</ele>
        <time>2020-07-17T18:51:09+02:00</time>
      </trkpt>
      <trkpt lat="45.1059" lon="1.44346">
        <ele>243</ele>
        <time>2020-07-17T18:51:09+02:00</time>
      </trkpt>
      <trkpt lat="45.10612" lon="1.44342">
        <ele>237</ele>
        <time>2020-07-17T18:51:09+02:00</time>
      </trkpt>
      <trkpt lat="45.10626" lon="1.44331">
        <ele>233</ele>
        <time>2020-07-17T18:51:09+02:00</time>
      </trkpt>
      <trkpt lat="45.10626" lon="1.44331">
        <ele>233</ele>
        <time>2020-07-17T18:51:09+02:00</time>
      </trkpt>
      <trkpt lat="45.10647" lon="1.44301">
        <ele>230</ele>
        <time>2020-07-17T18:51:09+02:00</time>
      </trkpt>
      <trkpt lat="45.10647" lon="1.44301">
        <ele>230</ele>
        <time>2020-07-17T18:51:09+02:00</time>
      </trkpt>
      <trkpt lat="45.10662" lon="1.44277">
        <ele>229</ele>
        <time>2020-07-17T18:51:09+02:00</time>
      </trkpt>
      <trkpt lat="45.10687" lon="1.44183">
        <ele>234</ele>
        <time>2020-07-17T18:51:09+02:00</time>
      </trkpt>
      <trkpt lat="45.10687" lon="1.44183">
        <ele>234</ele>
        <time>2020-07-17T18:51:09+02:00</time>
      </trkpt>
      <trkpt lat="45.10725" lon="1.44099">
        <ele>223</ele>
        <time>2020-07-17T18:51:09+02:00</time>
      </trkpt>
      <trkpt lat="45.10752" lon="1.44033">
        <ele>210</ele>
        <time>2020-07-17T18:51:09+02:00</time>
      </trkpt>
      <trkpt lat="45.10752" lon="1.44033">
        <ele>210</ele>
        <time>2020-07-17T18:51:09+02:00</time>
      </trkpt>
      <trkpt lat="45.10755" lon="1.43988">
        <ele>209</ele>
        <time>2020-07-17T18:51:09+02:00</time>
      </trkpt>
      <trkpt lat="45.10755" lon="1.43988">
        <ele>209</ele>
        <time>2020-07-17T18:51:09+02:00</time>
      </trkpt>
      <trkpt lat="45.10752" lon="1.43936">
        <ele>209</ele>
        <time>2020-07-17T18:51:09+02:00</time>
      </trkpt>
      <trkpt lat="45.10746" lon="1.43901">
        <ele>210</ele>
        <time>2020-07-17T18:51:09+02:00</time>
      </trkpt>
      <trkpt lat="45.10746" lon="1.43901">
        <ele>210</ele>
        <time>2020-07-17T18:51:09+02:00</time>
      </trkpt>
      <trkpt lat="45.10749" lon="1.43825">
        <ele>206</ele>
        <time>2020-07-17T18:51:09+02:00</time>
      </trkpt>
      <trkpt lat="45.10749" lon="1.43825">
        <ele>206</ele>
        <time>2020-07-17T18:51:09+02:00</time>
      </trkpt>
      <trkpt lat="45.10746" lon="1.43763">
        <ele>204</ele>
        <time>2020-07-17T18:51:09+02:00</time>
      </trkpt>
      <trkpt lat="45.10734" lon="1.43689">
        <ele>200</ele>
        <time>2020-07-17T18:51:09+02:00</time>
      </trkpt>
      <trkpt lat="45.10709" lon="1.4357">
        <ele>200</ele>
        <time>2020-07-17T18:51:09+02:00</time>
      </trkpt>
      <trkpt lat="45.10699" lon="1.4354">
        <ele>203</ele>
        <time>2020-07-17T18:51:09+02:00</time>
      </trkpt>
      <trkpt lat="45.10685" lon="1.43509">
        <ele>208</ele>
        <time>2020-07-17T18:51:09+02:00</time>
      </trkpt>
      <trkpt lat="45.10676" lon="1.43491">
        <ele>211</ele>
        <time>2020-07-17T18:51:09+02:00</time>
      </trkpt>
      <trkpt lat="45.10671" lon="1.43473">
        <ele>212</ele>
        <time>2020-07-17T18:51:09+02:00</time>
      </trkpt>
      <trkpt lat="45.1067" lon="1.43404">
        <ele>212</ele>
        <time>2020-07-17T18:51:09+02:00</time>
      </trkpt>
      <trkpt lat="45.10667" lon="1.43391">
        <ele>213</ele>
        <time>2020-07-17T18:51:09+02:00</time>
      </trkpt>
      <trkpt lat="45.10631" lon="1.43288">
        <ele>223</ele>
        <time>2020-07-17T18:51:09+02:00</time>
      </trkpt>
      <trkpt lat="45.10598" lon="1.43198">
        <ele>228</ele>
        <time>2020-07-17T18:51:09+02:00</time>
      </trkpt>
      <trkpt lat="45.10574" lon="1.43186">
        <ele>235</ele>
        <time>2020-07-17T18:51:09+02:00</time>
      </trkpt>
      <trkpt lat="45.10574" lon="1.43186">
        <ele>235</ele>
        <time>2020-07-17T18:51:09+02:00</time>
      </trkpt>
      <trkpt lat="45.10554" lon="1.43129">
        <ele>235</ele>
        <time>2020-07-17T18:51:09+02:00</time>
      </trkpt>
      <trkpt lat="45.10552" lon="1.43117">
        <ele>234</ele>
        <time>2020-07-17T18:51:09+02:00</time>
      </trkpt>
      <trkpt lat="45.10561" lon="1.43084">
        <ele>228</ele>
        <time>2020-07-17T18:51:09+02:00</time>
      </trkpt>
      <trkpt lat="45.1057" lon="1.43057">
        <ele>220</ele>
        <time>2020-07-17T18:51:09+02:00</time>
      </trkpt>
      <trkpt lat="45.10546" lon="1.4304">
        <ele>226</ele>
        <time>2020-07-17T18:51:09+02:00</time>
      </trkpt>
      <trkpt lat="45.10535" lon="1.43019">
        <ele>227</ele>
        <time>2020-07-17T18:51:09+02:00</time>
      </trkpt>
      <trkpt lat="45.10524" lon="1.42993">
        <ele>226</ele>
        <time>2020-07-17T18:51:09+02:00</time>
      </trkpt>
      <trkpt lat="45.10514" lon="1.42963">
        <ele>223</ele>
        <time>2020-07-17T18:51:09+02:00</time>
      </trkpt>
      <trkpt lat="45.10504" lon="1.42945">
        <ele>221</ele>
        <time>2020-07-17T18:51:09+02:00</time>
      </trkpt>
      <trkpt lat="45.10497" lon="1.42927">
        <ele>219</ele>
        <time>2020-07-17T18:51:09+02:00</time>
      </trkpt>
      <trkpt lat="45.10487" lon="1.429">
        <ele>218</ele>
        <time>2020-07-17T18:51:09+02:00</time>
      </trkpt>
      <trkpt lat="45.10477" lon="1.42873">
        <ele>219</ele>
        <time>2020-07-17T18:51:09+02:00</time>
      </trkpt>
      <trkpt lat="45.10464" lon="1.42842">
        <ele>220</ele>
        <time>2020-07-17T18:51:09+02:00</time>
      </trkpt>
      <trkpt lat="45.10457" lon="1.42815">
        <ele>219</ele>
        <time>2020-07-17T18:51:09+02:00</time>
      </trkpt>
      <trkpt lat="45.10448" lon="1.42763">
        <ele>215</ele>
        <time>2020-07-17T18:51:09+02:00</time>
      </trkpt>
      <trkpt lat="45.10436" lon="1.42713">
        <ele>214</ele>
        <time>2020-07-17T18:51:09+02:00</time>
      </trkpt>
      <trkpt lat="45.1043" lon="1.42697">
        <ele>214</ele>
        <time>2020-07-17T18:51:09+02:00</time>
      </trkpt>
      <trkpt lat="45.10429" lon="1.42681">
        <ele>212</ele>
        <time>2020-07-17T18:51:09+02:00</time>
      </trkpt>
      <trkpt lat="45.10425" lon="1.42617">
        <ele>209</ele>
        <time>2020-07-17T18:51:09+02:00</time>
      </trkpt>
      <trkpt lat="45.10416" lon="1.42512">
        <ele>207</ele>
        <time>2020-07-17T18:51:09+02:00</time>
      </trkpt>
      <trkpt lat="45.10407" lon="1.42462">
        <ele>208</ele>
        <time>2021-03-30T14:17:33+02:00</time>
      </trkpt>
      <trkpt lat="45.1039" lon="1.42411">
        <ele>211</ele>
        <time>2020-07-17T18:51:09+02:00</time>
      </trkpt>
      <trkpt lat="45.10374" lon="1.42331">
        <ele>211</ele>
        <time>2020-07-17T18:51:09+02:00</time>
      </trkpt>
      <trkpt lat="45.10363" lon="1.4227">
        <ele>209</ele>
        <time>2020-07-17T18:51:09+02:00</time>
      </trkpt>
      <trkpt lat="45.10359" lon="1.42225">
        <ele>208</ele>
        <time>2021-03-30T14:17:53+02:00</time>
      </trkpt>
      <trkpt lat="45.10349" lon="1.42206">
        <ele>209</ele>
        <time>2020-07-17T18:51:09+02:00</time>
      </trkpt>
      <trkpt lat="45.1037" lon="1.42167">
        <ele>203</ele>
        <time>2020-07-17T18:51:09+02:00</time>
      </trkpt>
      <trkpt lat="45.10386" lon="1.42144">
        <ele>200</ele>
        <time>2020-07-17T18:51:09+02:00</time>
      </trkpt>
      <trkpt lat="45.10398" lon="1.42128">
        <ele>199</ele>
        <time>2020-07-17T18:51:09+02:00</time>
      </trkpt>
      <trkpt lat="45.10427" lon="1.42081">
        <ele>198</ele>
        <time>2020-07-17T18:51:09+02:00</time>
      </trkpt>
      <trkpt lat="45.10439" lon="1.42058">
        <ele>193</ele>
        <time>2020-07-17T18:51:09+02:00</time>
      </trkpt>
      <trkpt lat="45.10443" lon="1.42026">
        <ele>190</ele>
        <time>2020-07-17T18:51:09+02:00</time>
      </trkpt>
      <trkpt lat="45.10431" lon="1.4199">
        <ele>189</ele>
        <time>2020-07-17T18:51:09+02:00</time>
      </trkpt>
      <trkpt lat="45.10401" lon="1.41961">
        <ele>185</ele>
        <time>2020-07-17T18:51:09+02:00</time>
      </trkpt>
      <trkpt lat="45.104" lon="1.41962">
        <ele>185</ele>
        <time>2021-03-30T14:18:43+02:00</time>
      </trkpt>
      <trkpt lat="45.10411" lon="1.41958">
        <ele>185</ele>
        <time>2020-07-17T18:51:09+02:00</time>
      </trkpt>
      <trkpt lat="45.10434" lon="1.41961">
        <ele>183</ele>
        <time>2020-07-17T18:51:09+02:00</time>
      </trkpt>
      <trkpt lat="45.10434" lon="1.41961">
        <ele>183</ele>
        <time>2020-07-17T18:51:09+02:00</time>
      </trkpt>
    </trkseg>
  </trk>
</gpx>